FW3884 Weather Reports


time (UTC)temp
C
wind
direction
speed
KPH
gust
KPH
rain 1hr
cm
rain 24hr
cm
rain mn
cm
humidity
%
barometer
mb
20260504081523 7 0.0 0.0 0.00 0.00 0.00 60 1016.0
20260504050009 9 0.0 0.0 0.00 0.00 0.00 51 1016.5
20260504044509 9 0.0 0.0 0.00 0.00 0.00 48 1016.5
20260504043004 8 0.0 0.0 0.00 0.00 0.00 48 1016.6
20260504041600 8 0.0 0.0 0.00 0.00 0.00 51 1016.5
20260504040132 8 0.0 0.0 0.00 0.00 0.00 53 1016.8
20260504034602 8 0.0 0.0 0.00 0.00 0.00 49 1016.8
20260504033056 8 0.0 0.0 0.00 0.00 0.00 49 1016.7
20260504031606 8 0.0 0.0 0.00 0.00 0.00 49 1016.6
20260504030155 8 0.0 0.0 0.00 0.00 0.00 51 1016.7
20260504024557 8 0.0 0.0 0.00 0.00 0.00 52 1016.8
20260504023053 8 0.0 0.0 0.00 0.00 0.00 51 1016.7
20260504021554 8 0.0 0.0 0.00 0.00 0.00 51 1016.5
20260504020107 8 0.0 0.0 0.00 0.00 0.00 54 1016.7
20260504014553 8 0.0 0.0 0.00 0.00 0.00 55 1016.4
20260504013052 8 0.0 0.0 0.00 0.00 0.00 51 1016.1
20260504011552 9 0.0 0.0 0.00 0.00 0.00 51 1016.2
20260504010054 10 0.0 0.0 0.00 0.00 0.00 49 1016.0
20260504004550 10 0.0 0.0 0.00 0.00 0.00 47 1015.8
20260504003053 10 0.0 0.0 0.00 0.00 0.00 46 1016.0
20260504001554 11 0.0 0.0 0.00 0.00 0.00 44 1015.7
20260504000051 12 0.0 0.0 0.00 0.00 0.00 45 1015.7
20260503234608 12 0.0 0.0 0.00 0.00 0.00 40 1015.5
20260503233050 12 0.0 0.0 0.00 0.00 0.00 40 1015.3
20260503231547 13 0.0 0.0 0.00 0.00 0.00 36 1015.2
20260503230051 13 0.0 0.0 0.00 0.00 0.00 34 1015.2
20260503224546 13 0.0 0.0 0.00 0.00 0.00 33 1015.3
20260503223046 13 0.0 0.0 0.00 0.00 0.00 32 1015.4
20260503221555 15 0.0 0.0 0.00 0.00 0.00 32 1015.4
20260503220046 16 0.0 0.0 0.00 0.00 0.00 29 1015.5
20260503214544 16 0.0 0.0 0.00 0.00 0.00 30 1015.8
20260503213045 16 0.0 0.0 0.00 0.00 0.00 32 1015.8
20260503211541 16 0.0 0.0 0.00 0.00 0.00 31 1015.9
20260503210041 16 0.0 0.0 0.00 0.00 0.00 30 1016.0
20260503204543 15 0.0 0.0 0.00 0.00 0.00 30 1016.2
20260503203053 15 0.0 0.0 0.00 0.00 0.00 30 1016.2
20260503201540 15 0.0 0.0 0.00 0.00 0.00 29 1016.4
20260503200039 15 0.0 0.0 0.00 0.00 0.00 28 1016.6
20260503194541 15 0.0 0.0 0.00 0.00 0.00 32 1016.9
20260503193038 15 0.0 0.0 0.00 0.00 0.00 31 1016.9
20260503191537 15 0.0 0.0 0.00 0.00 0.00 31 1017.2
20260503190035 15 0.0 0.0 0.00 0.00 0.00 35 1017.2
20260503184535 14 0.0 0.0 0.00 0.00 0.00 31 1017.4
20260503183034 15 0.0 0.0 0.00 0.00 0.00 31 1017.6
20260503181532 15 0.0 0.0 0.00 0.00 0.00 32 1017.8
20260503180031 13 0.0 0.0 0.00 0.00 0.00 33 1017.7
20260503174529 13 0.0 0.0 0.00 0.00 0.00 33 1017.9
20260503173029 13 0.0 0.0 0.00 0.00 0.00 35 1018.0
20260503171527 13 0.0 0.0 0.00 0.00 0.00 34 1018.1